Regional Weather Roundup
Issued by NWS

Home | Current Version | Previous Version | Text Only | Print | Product List | Glossary On
Versions: 1 2 3 4 5 6 7 8 9 10 11 12 13 14 15 16 17 18 19 20 21 22 23 24 25 26 27 28 29 30 31 32 33 34 35 36 37 38 39 40 41 42 43 44 45 46 47 48 49 50
000
ASUS44 KLIX 271411
RWRLA
LOUISIANA WEATHER ROUNDUP
NATIONAL WEATHER SERVICE NEW ORLEANS LA
900 AM CDT WED MAY 27 2015

NOTE: "FAIR" INDICATES FEW OR NO CLOUDS BELOW 12,000 FEET WITH NO
      SIGNIFICANT WEATHER AND/OR OBSTRUCTIONS TO VISIBILITY.
      SKY/WX - SKY CONDITION AND SIGNIFICANT WEATHER.
      TMP - AIR TEMPERATURE.    DP   - DEWPOINT TEMPERATURE.
      RH  - RELATIVE HUMIDITY.  PRES - PRESSURE.
      HX  - HEAT INDEX.         WCI  - WIND CHILL INDEX.

*  THESE STATIONS ARE NOT NWS OR FAA STATIONS AND ARE NOT UNDER
   NWS QUALITY CONTROL.

LAZ040-048-061>063-065-066-069-271500-
SOUTHEAST LOUISIANA

CITY           SKY/WX    TMP DP  RH WIND       PRES   REMARKS
N.O. AUDUBON     N/A     82  75  80 MISG        N/A
N.O. INTL ARPT CLOUDY    81  74  79 SE10      30.15R
N.O. LAKEFRONT PTSUNNY   83  73  72 SE7       30.16R
SLIDELL        PTSUNNY   81  75  82 S9        30.15R
BATON ROUGE    CLOUDY    76  74  93 CALM      30.15R
BOOTHVILLE     MOSUNNY   81  75  82 SE7       30.15R
BELLE CHASSE   CLOUDY    81  73  76 SE8       30.15R
BOGALUSA*        N/A     78  74  89 SE5       30.17R
GALLIANO*      MOSUNNY   82  75  79 MISG      30.15R
NEW ROADS*     CLOUDY    74  73  97 CALM      30.16R FOG
GONZALES*      CLOUDY    78  78 100 S3        30.14R
HAMMOND*       CLOUDY    81  75  83 S3        30.16R
HOUMA*         MOSUNNY   81  75  83 SE9       30.15R
PORT FOURCHON* MOSUNNY   82  75  78 S9        30.15R

$$

LAZ041-044-053-054-271500-
SOUTHWEST LOUISIANA

CITY           SKY/WX    TMP DP  RH WIND       PRES   REMARKS
LAKE CHARLES   RAIN      68  65  90 N8        30.14F FOG
LAFAYETTE      CLOUDY    75  74  96 N15       30.18R FOG
PATTERSON      CLOUDY    81  75  83 SE6       30.15R
SALT POINT       N/A     81  77  88 CALM      30.12R
NEW IBERIA     CLOUDY    78  75  90 N7        30.16R THUNDER
CHENAULT AIRPK TSTM      66  64  94 N16G23    30.17R

$$

LAZ027-028-271500-
CENTRAL LOUISIANA

CITY           SKY/WX    TMP DP  RH WIND       PRES   REMARKS
FORT POLK      TSTM      66  64  95 SE9       30.09F FOG
ALEXANDRIA INT RAIN      67  66  97 SE7       30.13F FOG
ALEXANDRIA     HVY RAIN  69  66  90 W3        30.15S FOG

$$

LAZ001-002-271500-
NORTHWEST LOUISIANA

CITY           SKY/WX    TMP DP  RH WIND       PRES   REMARKS
SHREVEPORT     CLOUDY    69  67  93 E5        30.06F
BARKSDALE AFB  CLOUDY    69  67  94 E3        30.07R
DTN SHREVEPORT CLOUDY    69  65  86 E6        30.07S

$$

LAZ014-016-271500-
NORTHEAST LOUISIANA

CITY           SKY/WX    TMP DP  RH WIND       PRES   REMARKS
MONROE         LGT RAIN  71  70  96 SW9       30.13S
TALLULAH       CLOUDY    73  71  93 SE10      30.13R

$$



USA.gov is the U.S. government's official web portal to all federal, state and local government web resources and services.